Showing default

NUSAT-42 (M WONENBURGER), 56966

Orbit data source: Space-Track

NUSAT-42 (M WONENBURGER), 56966 is a payload satellite owned by URUGUS S.A. (AR) in SSO that was launched on Mon, 12 Jun 2023 UTC via an FALCON 9 launch vehicle from the Air Force Western Test Range (AFWTR). Payload-class satellites include a variety of spacecraft equipped with specific instruments for various scientific and technological missions. These include communications satellites like Starlink; space stations such as the ISS; scientific satellites like the Hubble; Earth observation satellites from companies like Planet Labs, Umbra, and HawkEye 360; GPS; miniature CubeSats for education and research; and military/defense satellites.

Loading next visibility...
Identifier
56966, 2023-084AL
Orbit
SSO
Country
Flag of ARAR / ARGN
Related business
Manufacturer
URUGUS S.A.
Mission
Operational Commercial Imaging
Bus & Motor
NEWSAT V, Unknown motor
Mass
41.5 kg wet, 38.5 kg dry
Launch date (UTC)
2023-06-12 (3 years ago)
Launch vehicle
FALCON 9
Launch site
Air Force Western Test Range (AFWTR)
Object type
Payload
Rocket body
Debris
Shape & HBR
Box, 1.0 m
Radar Cross Section
0.542 m², Medium (>0.1 m² and < 1m²)

Expand to show TLE details & history
Last TLE update: 7 hours ago

TLE from 7 hours ago
0 NUSAT-42 (M WONENBURGER)
1 56966U 23084AL  26095.63261014  .00031438  00000-0  73142-3 0  9993
2 56966  97.5618 236.8353 0006826 148.9675 211.1976 15.42230074156885
Epoch: 2026-04-05T15:10Z
TLE epoch observation values (Epoch: 2026-04-05T15:10:57.516Z)
Latitude
-0.00001°
Longitude
175.16041°
Altitude
446.628 km
Speed
7.642 km/s
True Right ascension
15h 47m 20s
True Declination
0° 00' 00"
Sunlit
Object was in full shadow at epoch
Visualization orbit readout
Latitude
Unknown
Longitude
Unknown
Altitude
Unknown
Speed
Unknown
Apparent Right ascension
Unknown
Apparent Declination
Unknown
Sunlit
N/A
Visualization observer readout
Local Sidereal Time
03:43:43
Azimuth
Unknown
Elevation
Unknown
Doppler factor
Unknown
Orbital elements
Apogee altitude
441.124 km
Perigee altitude
431.821 km
Semi-major axis
6,814.609 km
Eccentricity
0.00068
Inclination
97.5618°
RAAN
236.8353°
Arg. of periapsis
148.9675°
True anomaly
211.15711°
Mean anomaly
211.1976°
Eccentric anomaly
211.17735°
Mean motion
3.85817 °/min
Orbital period
93.31 mins
BSTAR
0.00073142
Loading maneuver chart data...
Computing Atmospheric mass density...
Loading historical data...
Loading historical data...
Loading historical data...
Loading historical data...
Loading historical data...
Loading historical data...
Loading historical data...

Documentation

Showing up to 5 results
|